Location: Unspecified
(58.7730°N, 5.8460°E)
Time: 05:00:07
(UTC+01:00)

Resurs 1-4 Rocket - Visible Passes

Search period start: 01 November 2014 00:00
Search period end: 11 November 2014 00:00
Orbit: 801 x 814 km, 98.4° (Epoch: 30 October)

Date Brightness Start Highest point End Pass type
(mag) Time Alt. Az. Time Alt. Az. Time Alt. Az.
01 Nov 3.7 03:57:29 10° NNE 04:02:16 33° E 04:07:01 10° SSE visible
01 Nov 2.1 05:37:15 10° NNE 05:42:29 60° WNW 05:47:41 10° SW visible
02 Nov 4.2 03:33:21 10° NE 03:37:33 23° E 03:41:44 10° SE visible
02 Nov 2.0 05:12:45 10° NNE 05:18:06 84° WNW 05:23:22 10° SSW visible
02 Nov 3.2 06:53:13 10° N 06:57:22 24° NW 07:01:31 10° W visible
03 Nov 4.7 03:09:29 10° NE 03:12:45 16° E 03:16:00 10° ESE visible
03 Nov 2.3 04:48:18 10° NNE 04:53:38 70° ESE 04:58:24 13° S visible
03 Nov 2.9 06:28:34 10° N 06:33:12 31° NW 06:37:48 10° WSW visible
04 Nov 5.0 02:46:27 10° ENE 02:47:52 11° ENE 02:49:16 10° E visible
04 Nov 2.9 04:23:56 10° NNE 04:29:06 49° E 04:33:26 14° S visible
04 Nov 2.5 06:03:59 10° N 06:08:58 42° WNW 06:13:54 10° SW visible
04 Nov 5.2 17:38:06 10° W 17:40:08 12° WNW 17:42:11 10° NW visible
05 Nov 3.6 03:59:38 10° NNE 04:04:28 34° E 04:08:29 14° SSE visible
05 Nov 2.1 05:39:26 10° NNE 05:44:39 58° WNW 05:49:33 12° SW visible
06 Nov 4.1 03:35:29 10° NE 03:39:46 24° E 03:43:31 12° SE visible
06 Nov 2.0 05:14:56 10° NNE 05:20:17 81° WNW 05:24:35 16° SSW visible
06 Nov 3.2 06:55:26 10° N 06:59:31 23° NW 07:03:35 10° W visible
07 Nov 4.6 03:11:35 10° NE 03:14:59 17° E 03:18:21 10° ESE visible
07 Nov 2.2 04:50:29 10° NNE 04:55:49 73° ESE 04:59:38 19° S visible
07 Nov 2.9 06:30:47 10° N 06:35:21 30° NW 06:39:54 10° WSW visible
08 Nov 4.9 02:48:22 10° ENE 02:50:05 11° ENE 02:51:49 10° E visible
08 Nov 2.8 04:26:06 10° NNE 04:31:17 51° E 04:34:40 21° SSE visible
08 Nov 2.5 06:06:11 10° N 06:11:07 41° WNW 06:15:44 11° SW visible
08 Nov 5.2 17:40:37 10° W 17:42:23 12° WNW 17:44:08 10° WNW visible
09 Nov 3.5 04:01:48 10° NNE 04:06:40 35° E 04:09:42 20° SSE visible
09 Nov 2.1 05:41:38 10° NNE 05:46:49 56° WNW 05:50:47 17° SW visible
09 Nov 3.5 07:22:22 10° N 07:25:45 18° NW 07:29:08 10° W visible
09 Nov 4.9 17:14:06 10° WSW 17:17:30 17° W 17:20:54 10° NW visible
10 Nov 4.1 03:37:38 10° NE 03:41:59 25° E 03:44:45 17° SE visible
10 Nov 2.0 05:17:07 10° NNE 05:22:27 78° WNW 05:25:49 23° SSW visible
10 Nov 3.3 06:57:38 10° N 07:01:39 23° NW 07:05:40 10° W visible
